星链-5990 (STARLINK-5990 )

导读

STARLINK-5990是美国太空探索技术公司(SpaceX)于2023年5月10日发射的星链低轨互联网通信卫星,属于星链卫星互联网组网计划的一员。它运行在近地轨道,配备相控阵天线,支持Ku/Ka频段通信与激光星间链路,能为地面偏远地区、海上等场景提供高速低延迟宽带互联网接入,助力星链完成全球无缝网络覆盖的组网目标。

基本信息
目录编号:
56448
目录名称:
STARLINK-5990
国际标识:
2023-064A
轨道中心:
EARTH
卫星名称:
星链-5990
卫星全名:
星链-5990 (STARLINK-5990 )
卫星状态:
在轨 (已飞行1221 天)
发射日期:
2023-05-10 UTC
国别 :
美国 (US)
星等 :
--
该卫星已列入 空间交会检测服务 Space Conjunction Data Service (SCDS) ,当前飞行风险评估等级: 无高风险
轨道信息
数据来源 国际轨道数据 AOE轨道数据
星历时间 2026-09-12T03:29:23+0800
22小时前
查看轨道信息
2026-09-11T07:00:00+0800
1天前
查看轨道信息
半长轴 6950.195km 6950.203km
偏心率 0.000302 0.0003023
轨道倾角 70.001° 70.002°
近地点辐角 266.473° 269.978°
升交点赤经 35.247° 37.396°
平近点角 93.608° 166.366°
近地点 569.959km 569.964km
远地点 574.157km 574.168km
周期 96.107分钟 96.107分钟
每日圈数 14.983296 14.983269
详细信息
固有亮度:
5
最大亮度:
2.5
卫星平台:
Starlink v1.5
覆盖范围:
全球
运营商:
太空探索技术公司
运营商所在国:
美国
制造商(研发单位):
太空探索技术公司
制造商所在国:
美国
使用方式:
暂无
卫星简介
星链(Starlink)计划是由太空探索技术公司(SpaceX)提出的一个巨型低轨卫星互联网星座项目,计划在2019年至2024年间在太空搭建由约1.2万颗卫星组成的“星链”网络,其中1584颗将部署在地球上空550千米处的近地轨道,并从2020年开始工作。该卫星仍在工作。
2D轨道图
3D轨道图
轨道高度分析图
轨道倾角分析图
轨道综合分析图
查看轨道综合分析图
交会数据列表
事件ID 空间交会对象 最接近时刻(TCA) 交会距离 交会风险概率(CRP) 交会风险指数(CRI) 操作
CDM_260913-021905-644805-646922
2026-09-13T
02:19:01+0000
1.963 km
极远距离
1.026498E-6 低风险 0.35
与全量物体交会距离演化趋势
与全量物体交会风险概率演化趋势